When you browse on this site, cookies collect data to enhance your experience and personalize the content and advertising you see.
Visit our Privacy Policy to learn more. By continuing to use the site, you agree to this use of cookies and data.
  • In Österreich
  • Länderverzeichnis
  • Für 7 Tage
  • Wassertemperatur
  • Wetterkarte
  • News
  • Widgets
  • user-avatar
    Anmelden

    Stündliche Wetter Singuilucan

    Heute, 15 November, Freitag

    Zeit Temperatur Niederschläge Wind Luftdruck Luftfeuchtigkeit
    00:00 +9°C° 0.1 mm 2 m/S 557 mmHg 91%
    01:00 +9°C° 0.1 mm 2 m/S 557 mmHg 91%
    02:00 +9°C° 0.1 mm 2 m/S 557 mmHg 92%
    03:00 +9°C° 0 mm 2 m/S 557 mmHg 92%
    04:00 +9°C° 0 mm 2 m/S 557 mmHg 92%
    05:00 +8°C° 0 mm 2 m/S 557 mmHg 92%
    06:00 +8°C° 0 mm 2 m/S 557 mmHg 91%
    07:00 +8°C° 0 mm 2 m/S 558 mmHg 89%
    08:00 +8°C° 0 mm 2 m/S 558 mmHg 88%
    09:00 +9°C° 0 mm 2 m/S 558 mmHg 83%
    10:00 +10°C° 0 mm 2 m/S 559 mmHg 78%
    11:00 +12°C° 0 mm 2 m/S 559 mmHg 74%
    12:00 +12°C° 0 mm 2 m/S 558 mmHg 75%
    13:00 +12°C° 0 mm 2 m/S 558 mmHg 76%
    14:00 +12°C° 0 mm 2 m/S 557 mmHg 77%
    15:00 +10°C° 0 mm 2 m/S 557 mmHg 81%
    16:00 +9°C° 0 mm 2 m/S 556 mmHg 84%
    17:00 +8°C° 0 mm 2 m/S 556 mmHg 88%
    18:00 +8°C° 0 mm 2 m/S 556 mmHg 89%
    19:00 +8°C° 0 mm 2 m/S 557 mmHg 90%
    20:00 +7°C° 0 mm 2 m/S 557 mmHg 91%
    21:00 +7°C° 0 mm 2 m/S 557 mmHg 91%
    22:00 +8°C° 0 mm 1 m/S 556 mmHg 91%
    23:00 +8°C° 0 mm 1 m/S 556 mmHg 91%

    Morgen, 16 November, Samstag

    Zeit Temperatur Niederschläge Wind Luftdruck Luftfeuchtigkeit
    00:00 +8°C° 0 mm 1 m/S 556 mmHg 91%
    01:00 +8°C° 0 mm 1 m/S 556 mmHg 91%
    02:00 +8°C° 0 mm 1 m/S 555 mmHg 90%
    03:00 +7°C° 0 mm 0 m/S 555 mmHg 90%
    04:00 +8°C° 0 mm 0 m/S 555 mmHg 90%
    05:00 +8°C° 0 mm 0 m/S 555 mmHg 90%
    06:00 +8°C° 0 mm 0 m/S 556 mmHg 86%
    07:00 +9°C° 0 mm 0 m/S 557 mmHg 82%
    08:00 +10°C° 0 mm 0 m/S 558 mmHg 78%
    09:00 +13°C° 0 mm 1 m/S 558 mmHg 72%
    10:00 +15°C° 0 mm 1 m/S 559 mmHg 65%
    11:00 +16°C° 0 mm 1 m/S 559 mmHg 58%
    12:00 +16°C° 0.1 mm 1 m/S 559 mmHg 60%
    13:00 +16°C° 0.1 mm 2 m/S 558 mmHg 61%
    14:00 +16°C° 0.1 mm 2 m/S 557 mmHg 62%
    15:00 +15°C° 0.3 mm 2 m/S 557 mmHg 69%
    16:00 +14°C° 0.3 mm 2 m/S 556 mmHg 77%
    17:00 +12°C° 0.3 mm 2 m/S 556 mmHg 84%
    18:00 +12°C° 0.1 mm 2 m/S 556 mmHg 85%
    19:00 +11°C° 0.1 mm 1 m/S 556 mmHg 87%
    20:00 +11°C° 0.1 mm 1 m/S 556 mmHg 88%
    21:00 +11°C° 0 mm 1 m/S 556 mmHg 89%
    22:00 +10°C° 0 mm 1 m/S 555 mmHg 90%
    23:00 +10°C° 0 mm 1 m/S 555 mmHg 90%

    übermorgen, 17 November, Sonntag

    Zeit Temperatur Niederschläge Wind Luftdruck Luftfeuchtigkeit
    00:00 +10°C° 0 mm 1 m/S 554 mmHg 90%
    01:00 +10°C° 0 mm 1 m/S 554 mmHg 90%
    02:00 +9°C° 0 mm 1 m/S 554 mmHg 90%
    03:00 +9°C° 0 mm 1 m/S 554 mmHg 90%
    04:00 +9°C° 0 mm 1 m/S 554 mmHg 90%
    05:00 +9°C° 0 mm 1 m/S 554 mmHg 90%
    06:00 +11°C° 0 mm 1 m/S 555 mmHg 83%
    07:00 +12°C° 0 mm 1 m/S 556 mmHg 77%
    08:00 +14°C° 0 mm 1 m/S 557 mmHg 70%
    09:00 +15°C° 0 mm 1 m/S 557 mmHg 65%
    10:00 +16°C° 0 mm 2 m/S 557 mmHg 59%
    11:00 +18°C° 0 mm 2 m/S 558 mmHg 54%
    12:00 +18°C° 0.2 mm 2 m/S 557 mmHg 55%
    13:00 +17°C° 0.2 mm 2 m/S 557 mmHg 56%
    14:00 +17°C° 0.2 mm 3 m/S 556 mmHg 57%
    15:00 +16°C° 0.2 mm 2 m/S 555 mmHg 65%
    16:00 +15°C° 0.2 mm 2 m/S 555 mmHg 74%
    17:00 +13°C° 0.2 mm 2 m/S 554 mmHg 83%
    18:00 +13°C° 0.1 mm 2 m/S 555 mmHg 83%
    19:00 +13°C° 0.1 mm 1 m/S 555 mmHg 83%
    20:00 +12°C° 0.1 mm 1 m/S 555 mmHg 82%
    21:00 +12°C° 0.1 mm 1 m/S 555 mmHg 81%
    22:00 +12°C° 0.1 mm 1 m/S 555 mmHg 79%
    23:00 +12°C° 0.1 mm 1 m/S 555 mmHg 77%

    18 November, Montag

    Zeit Temperatur Niederschläge Wind Luftdruck Luftfeuchtigkeit
    00:00 +12°C° 0 mm 1 m/S 555 mmHg 77%
    01:00 +11°C° 0 mm 1 m/S 554 mmHg 77%
    02:00 +10°C° 0 mm 0 m/S 554 mmHg 78%
    03:00 +10°C° 0 mm 0 m/S 554 mmHg 78%
    04:00 +9°C° 0 mm 0 m/S 554 mmHg 78%
    05:00 +9°C° 0 mm 0 m/S 554 mmHg 79%
    06:00 +10°C° 0 mm 0 m/S 555 mmHg 73%
    07:00 +12°C° 0 mm 0 m/S 556 mmHg 67%
    08:00 +13°C° 0 mm 0 m/S 557 mmHg 62%
    09:00 +15°C° 0 mm 1 m/S 557 mmHg 58%
    10:00 +18°C° 0 mm 1 m/S 557 mmHg 54%
    11:00 +19°C° 0 mm 1 m/S 557 mmHg 50%
    12:00 +18°C° 0 mm 2 m/S 557 mmHg 52%
    13:00 +18°C° 0 mm 2 m/S 556 mmHg 54%
    14:00 +18°C° 0 mm 2 m/S 556 mmHg 56%
    15:00 +16°C° 0.2 mm 2 m/S 555 mmHg 66%
    16:00 +14°C° 0.2 mm 3 m/S 555 mmHg 75%
    17:00 +13°C° 0.2 mm 3 m/S 554 mmHg 84%
    18:00 +13°C° 0.1 mm 2 m/S 555 mmHg 86%
    19:00 +13°C° 0.1 mm 2 m/S 555 mmHg 87%
    20:00 +12°C° 0.1 mm 1 m/S 555 mmHg 89%
    21:00 +12°C° 0.1 mm 1 m/S 555 mmHg 88%
    22:00 +12°C° 0.1 mm 1 m/S 555 mmHg 88%
    23:00 +12°C° 0.1 mm 1 m/S 554 mmHg 87%

    19 November, Dienstag

    Zeit Temperatur Niederschläge Wind Luftdruck Luftfeuchtigkeit
    00:00 +10°C° 0 mm 0 m/S 554 mmHg 86%
    01:00 +10°C° 0 mm 0 m/S 554 mmHg 85%
    02:00 +10°C° 0 mm 0 m/S 554 mmHg 84%
    03:00 +10°C° 0 mm 0 m/S 554 mmHg 83%
    04:00 +10°C° 0 mm 0 m/S 554 mmHg 82%
    05:00 +10°C° 0 mm 0 m/S 554 mmHg 82%
    06:00 +11°C° 0 mm 0 m/S 555 mmHg 77%
    07:00 +12°C° 0 mm 0 m/S 556 mmHg 73%
    08:00 +13°C° 0 mm 0 m/S 557 mmHg 69%
    09:00 +15°C° 0 mm 1 m/S 557 mmHg 64%
    10:00 +18°C° 0 mm 1 m/S 558 mmHg 59%
    11:00 +19°C° 0 mm 1 m/S 558 mmHg 54%
    12:00 +18°C° 0.1 mm 2 m/S 557 mmHg 58%
    13:00 +17°C° 0.1 mm 2 m/S 557 mmHg 61%
    14:00 +17°C° 0.1 mm 3 m/S 556 mmHg 65%
    15:00 +14°C° 0.2 mm 3 m/S 555 mmHg 72%
    16:00 +14°C° 0.2 mm 2 m/S 555 mmHg 78%
    17:00 +13°C° 0.2 mm 2 m/S 554 mmHg 85%
    18:00 +12°C° 0 mm 2 m/S 554 mmHg 86%
    19:00 +12°C° 0 mm 1 m/S 555 mmHg 88%
    20:00 +11°C° 0 mm 1 m/S 555 mmHg 89%
    21:00 +11°C° 0 mm 1 m/S 555 mmHg 89%
    22:00 +11°C° 0 mm 1 m/S 555 mmHg 89%
    23:00 +11°C° 0 mm 1 m/S 554 mmHg 89%

    20 November, Mittwoch

    Zeit Temperatur Niederschläge Wind Luftdruck Luftfeuchtigkeit
    00:00 +11°C° 0 mm 1 m/S 554 mmHg 90%
    01:00 +11°C° 0 mm 1 m/S 554 mmHg 91%
    02:00 +11°C° 0 mm 1 m/S 554 mmHg 91%
    03:00 +11°C° 0 mm 1 m/S 554 mmHg 91%
    04:00 +11°C° 0 mm 1 m/S 554 mmHg 91%
    05:00 +10°C° 0 mm 1 m/S 554 mmHg 91%
    06:00 +12°C° 0 mm 1 m/S 555 mmHg 85%
    07:00 +13°C° 0 mm 1 m/S 556 mmHg 79%
    08:00 +15°C° 0 mm 1 m/S 557 mmHg 72%
    09:00 +16°C° 0 mm 1 m/S 557 mmHg 66%
    10:00 +18°C° 0 mm 1 m/S 557 mmHg 60%
    11:00 +20°C° 0 mm 1 m/S 558 mmHg 53%
    12:00 +19°C° 0.1 mm 2 m/S 557 mmHg 52%
    13:00 +19°C° 0.1 mm 2 m/S 557 mmHg 51%
    14:00 +20°C° 0.1 mm 2 m/S 557 mmHg 50%
    15:00 +18°C° 0.1 mm 2 m/S 556 mmHg 58%
    16:00 +17°C° 0.1 mm 2 m/S 556 mmHg 66%
    17:00 +15°C° 0.1 mm 2 m/S 555 mmHg 75%
    18:00 +15°C° 0.2 mm 2 m/S 555 mmHg 77%
    19:00 +14°C° 0.2 mm 1 m/S 555 mmHg 79%
    20:00 +14°C° 0.2 mm 1 m/S 555 mmHg 82%
    21:00 +13°C° 0 mm 1 m/S 555 mmHg 81%
    22:00 +13°C° 0 mm 1 m/S 555 mmHg 80%
    23:00 +12°C° 0 mm 0 m/S 555 mmHg 79%
    Mehr zeigen